Regional Weather Roundup
Issued by NWS Goodland, KS

Home | Current Version | Previous Version | Graphics & Text | Print | Product List | Glossary On
Versions: 1 2 3 4 5 6 7 8 9 10 11 12 13 14 15 16 17 18 19 20 21 22 23 24 25 26 27 28 29 30 31 32 33 34 35 36 37 38 39 40 41 42 43 44 45 46 47 48 49 50
000
ASUS43 KGLD 251059
RWRGLD

GOODLAND FORECAST AREA HOURLY WEATHER ROUNDUP
NATIONAL WEATHER SERVICE GOODLAND KS
500 AM MDT FRI JUL 25 2014

...OFFICIAL OBSERVATIONS...

CITY           SKY/WX    TMP DP  RH WIND       PRES   REMARKS
GOODLAND KS    MOCLDY    71  52  50 NW3       29.90F
HILL CITY KS   MOCLDY    80  63  55 SW10      29.83S
IMPERIAL NEB   CLEAR     65  57  75 SW5       29.86F
MCCOOK NEB     PTCLDY    67  57  70 N6        29.83R
AKRON CO       PTCLDY    70  52  52 W14       29.99R
BURLINGTON CO  PTCLDY    67  55  65 W9        29.95S
LIMON CO       PTCLDY    57  55  93 CALM      30.07R
$$

...UNOFFICIAL OBSERVATIONS...

CITY           SKY/WX    TMP DP  RH WIND       PRES   REMARKS
COLBY KS       CLEAR     73  57  56 SW7       29.88S
GOVE KS          N/A     80  32  17 MISG        N/A
LENORA KS        N/A     79  32  18 MISG        N/A
NORTON KS      CLEAR     79  54  41 SW14      29.80S
SHARON SPRINGS   N/A     74  56  53 CALM        N/A
WAKEENEY KS      N/A     78  61  56 MISG        N/A
KIT CARSON CO    N/A     68  52  56 CALM        N/A
YUMA CO          N/A     62  55  78 W8          N/A
$$



USA.gov is the U.S. government's official web portal to all federal, state and local government web resources and services.